Vorticity
nan nan nan nan nan nan nan nan nan nan nan nan nan nan nan nan nan nan nan nan nan nan nan nan nan nan nan nan nan nan nan nan nan nan nan nan nan nan nan nan nan nan nan nan
nan 6 12 8 9 11 10 9 7 9 9 10 12 12 14 9 6 5 5 5 7 6 4 7 9 7 8 7 7 7 7 8 6 5 8 10 9 8 8 9 11 9 8 nan
nan 8 9 5 8 14 15 12 7 8 5 7 10 12 11 8 8 6 6 7 7 7 8 8 7 8 7 7 8 7 8 7 7 6 6 7 6 8 10 9 10 10 10 nan
nan 9 7 9 12 13 11 17 16 13 4 1 7 10 17 14 7 7 8 7 7 10 8 8 10 10 8 8 8 9 10 8 8 7 5 6 5 6 7 8 9 11 11 nan
nan 10 10 9 18 11 15 25 16 4 5 8 10 7 14 16 12 9 8 7 8 10 11 12 12 11 10 11 10 9 10 9 9 8 6 7 6 6 6 7 9 11 10 nan
nan 6 9 8 18 18 9 2 5 6 8 8 7 11 10 10 14 17 16 12 9 7 9 12 12 12 12 10 10 11 10 9 9 7 7 6 6 5 5 6 7 9 9 nan
nan 6 11 11 7 7 2 0 1 7 7 10 10 8 9 12 16 17 17 16 13 10 8 9 11 9 9 9 8 9 10 9 9 8 7 8 7 7 7 6 7 8 8 nan
nan 14 12 7 4 11 7 3 7 11 9 10 11 8 6 14 16 9 9 12 15 14 13 9 7 10 10 8 8 8 8 9 9 8 7 8 7 6 8 7 7 8 8 nan
nan 7 9 12 12 16 11 9 9 12 9 6 8 10 6 13 18 14 12 10 12 15 14 12 9 9 12 11 10 7 7 8 9 7 8 9 8 6 7 7 6 7 7 nan
nan 10 11 9 6 11 15 13 8 7 9 8 8 11 9 6 14 18 14 10 10 12 11 10 11 12 11 11 10 11 9 8 9 9 8 8 9 8 7 8 7 5 7 nan
nan 9 9 7 9 8 11 3 7 7 8 11 9 14 10 7 5 7 7 6 8 9 7 6 10 13 12 12 12 11 10 9 9 9 8 8 10 9 8 8 8 7 6 nan
nan 8 7 11 11 10 10 13 9 10 9 6 10 10 12 11 3 5 7 8 8 9 12 13 12 13 14 12 12 10 10 10 9 8 9 8 8 10 9 8 8 9 9 nan
nan 8 11 10 10 6 7 10 12 11 11 11 8 9 10 10 7 8 9 11 10 9 12 14 16 15 12 14 15 12 10 11 11 10 9 9 9 8 9 10 10 9 10 nan
nan 8 10 11 5 9 10 11 6 4 12 7 11 14 14 10 6 9 9 7 7 9 12 15 14 13 14 17 16 14 13 13 11 11 10 10 11 11 10 10 12 11 10 nan
nan 10 9 10 11 11 9 14 11 7 9 12 17 15 8 7 8 8 9 9 8 9 12 12 10 10 12 14 16 18 18 17 14 11 11 12 13 13 14 13 12 11 10 nan
nan 10 9 4 9 14 9 10 14 13 10 15 9 6 10 10 9 8 8 9 9 9 9 9 10 11 11 12 14 13 13 14 18 19 16 16 16 15 12 9 8 13 11 nan
nan 11 10 6 7 15 9 4 10 14 11 11 13 14 13 7 7 8 8 10 9 8 9 10 10 9 10 9 8 9 10 11 15 16 15 15 12 6 8 11 6 7 10 nan
nan 8 10 8 12 10 9 13 11 10 14 12 17 15 10 8 8 8 8 8 8 9 8 8 9 8 8 8 8 10 11 13 12 9 7 8 8 6 8 8 9 7 9 nan
nan 12 8 10 8 11 10 8 11 12 12 12 13 11 9 7 4 7 9 6 6 7 7 8 8 9 8 9 10 9 9 11 12 9 6 6 8 9 8 9 9 9 10 nan
nan 10 10 12 10 8 6 7 10 12 13 13 12 12 7 2 4 12 11 7 7 5 6 7 8 7 7 8 8 7 8 11 10 10 11 11 11 11 11 9 10 10 9 nan
nan 9 13 10 9 9 8 7 14 12 10 16 16 12 5 1 12 19 12 9 10 8 7 6 5 6 8 9 8 8 8 12 14 13 11 11 11 11 12 11 11 10 9 nan
nan 9 10 8 12 9 8 12 8 10 14 15 15 11 5 9 15 13 9 9 9 9 10 8 7 8 9 11 10 8 9 9 12 10 9 9 11 12 11 10 10 10 10 nan
nan 8 11 9 9 10 10 10 13 14 13 16 15 11 8 8 11 8 8 7 5 7 12 13 13 13 13 13 10 7 9 8 7 8 10 10 10 10 11 12 13 13 11 nan
nan 12 11 12 7 6 11 13 11 13 12 13 14 14 8 6 8 8 8 8 8 9 11 12 11 11 13 13 10 8 8 10 8 8 10 11 10 10 11 12 12 11 12 nan
nan 14 8 9 10 13 12 11 10 9 8 9 10 13 12 8 9 9 9 10 11 10 8 8 9 8 9 10 11 11 11 9 8 9 10 11 10 10 10 10 11 13 14 nan
nan nan nan nan nan nan nan nan nan nan nan nan nan nan nan nan nan nan nan nan nan nan nan nan nan nan nan nan nan nan nan nan nan nan nan nan nan nan nan nan nan nan nan nan
CAPE
39 197 281 208 81 18 13 102 170 148 189 123 167 280 916 600 376 320 393 460 503 527 486 467 508 503 390 356 339 321 307 533 735 787 799 877 877 1158 1000 1235 1775 1780 1818 1725
33 130 96 0 0 0 0 45 110 196 221 192 280 334 785 700 524 443 445 422 452 479 527 543 474 392 330 323 363 496 574 767 785 772 804 857 1075 1096 981 1418 1764 1776 1636 1728
267 211 0 0 0 0 0 47 190 156 268 168 203 356 436 475 622 519 483 491 486 533 609 587 589 501 413 425 517 555 821 975 1019 903 871 1053 1218 1217 1478 1734 1666 1674 1723 1838
184 99 0 0 0 0 3 0 119 354 281 314 136 165 285 537 456 438 499 445 389 395 485 510 529 592 542 545 581 624 818 975 992 1173 1081 1334 1215 936 1364 1772 1678 1599 1908 2064
4 0 0 0 0 0 241 8 277 350 277 213 193 106 235 403 584 501 387 340 349 240 116 86 14 93 249 454 567 602 883 1075 1163 1250 1398 1360 1279 957 1559 1768 1921 2253 2198 2359
0 0 0 0 0 116 196 267 140 24 58 354 5 81 172 426 393 432 457 291 275 355 299 18 7 108 377 475 607 677 946 1206 1301 1398 1410 1479 1319 1226 1277 1817 1749 1851 1990 2351
0 0 0 0 89 145 10 93 142 223 332 228 3 43 203 32 218 410 507 425 257 326 344 381 4 106 397 541 643 672 979 1182 1222 1261 1348 1345 1352 1449 1492 1909 1803 2020 1947 2090
0 1 0 0 3 270 228 2 0 0 7 109 101 333 343 0 5 71 46 154 288 650 391 261 136 76 371 606 726 748 903 1198 1222 1208 1367 1527 1483 1144 1249 1528 1701 1778 1960 2052
0 0 0 0 0 0 0 0 0 67 8 241 205 241 52 112 36 48 59 143 270 352 330 443 449 33 173 458 753 816 1034 1213 1291 1164 1465 1499 1459 1452 1447 1922 2025 1823 2144 2100
0 0 0 0 0 0 0 0 1 133 281 272 247 229 237 447 608 453 455 396 176 165 246 289 379 415 85 106 358 680 878 1055 1172 1202 1411 1393 1321 1486 1547 1836 2093 2168 2339 2553
0 0 0 0 0 0 0 0 0 22 37 95 123 383 388 569 687 648 411 584 643 462 253 199 133 250 300 138 132 373 660 934 1095 1152 1379 1468 1353 1246 1455 1525 1817 2085 2214 2592
0 0 0 0 0 0 0 0 0 0 49 2 310 510 704 689 465 599 616 812 789 866 1470 1885 1931 1690 557 284 324 732 511 765 1137 1320 1546 1381 1360 1345 1200 1474 1638 1936 2215 2436
0 2 13 3 0 0 0 0 0 0 76 427 354 609 722 804 595 713 946 1507 1833 1746 1564 1406 1460 1616 912 438 443 617 977 899 1117 1317 1183 1162 1200 1273 1308 1394 1634 1877 2092 2249
0 0 5 17 20 0 1 4 8 143 324 574 479 861 867 645 794 1456 2095 2063 1674 1502 1280 1242 1203 1096 1040 873 599 810 789 825 961 1001 1071 1271 1501 1579 1692 1930 2259 2222 2525 2663
0 10 0 0 0 0 0 185 37 35 219 308 439 826 798 778 1877 2320 2008 1289 1563 1419 1230 1048 971 1091 1126 1156 1248 1130 945 1155 1006 1340 1349 1509 1610 1887 2135 2536 2662 2724 2840 2902
0 0 0 2 0 0 180 205 306 45 246 349 574 543 583 1622 2481 1662 901 864 1438 1368 1108 954 893 829 1001 1151 1176 1319 1384 1456 1779 1820 1835 2114 2398 2592 2539 1787 1123 1510 1933 2265
0 0 0 50 0 6 166 177 383 651 292 432 678 686 1037 2387 1362 972 547 432 562 563 776 906 912 1161 1280 1223 1180 1042 900 922 1578 1628 1507 1655 1282 895 87 347 418 852 1373 1463
0 0 0 0 0 11 25 101 147 482 277 621 518 766 1619 1708 1379 1015 544 450 478 467 405 494 528 617 609 486 209 304 502 893 1210 1189 791 221 480 533 455 364 498 719 1002 1361
0 0 0 0 0 0 202 311 662 753 600 1054 731 908 2110 1895 1208 1176 810 424 482 568 467 330 242 159 143 79 115 217 169 318 1092 1332 1233 1006 778 622 689 973 740 544 684 744
0 0 0 0 0 0 64 125 365 842 638 1069 1136 1559 2049 1683 723 1337 1250 758 497 503 523 513 401 321 314 251 174 189 278 193 143 237 359 447 645 916 1007 809 559 541 424 364
0 0 0 0 0 0 6 27 56 992 616 966 1316 1748 2066 1373 1019 1555 1532 1236 771 561 426 422 467 554 535 408 321 529 429 284 247 215 417 472 628 707 684 651 876 586 410 361
42 133 11 0 0 0 43 317 404 328 416 832 1431 1861 1931 1443 1345 1706 1592 1391 1097 948 626 356 501 634 652 551 473 696 710 519 667 704 812 1195 1239 1072 1047 1296 1200 836 752 782
197 55 359 283 138 55 42 107 111 187 744 759 1572 1579 1707 1359 1503 1556 1446 1411 1314 1262 1105 629 617 670 691 688 659 952 917 592 1007 1056 1144 1027 1133 1405 1498 1634 1673 1330 1031 802
0 0 353 205 122 111 52 97 156 249 540 429 772 1240 1229 793 687 956 974 924 1124 1109 919 731 710 779 885 807 863 921 796 605 781 1333 1464 1328 1368 590 811 777 684 684 934 760
0 0 62 34 30 13 5 78 197 37 38 94 134 396 828 526 237 397 595 478 675 726 601 767 1069 1225 1132 983 1003 976 1041 1055 1418 1709 1436 1107 228 668 643 155 80 88 92 4
0 19 32 23 305 291 198 33 0 14 24 17 8 0 11 132 262 191 201 331 552 690 851 1083 1365 1412 1349 1150 1590 1486 1177 1243 1690 1407 704 629 402 434 487 174 153 1 0 0